Flag for South Africa Weather past 2 weeks in Bloemfontein, South Africa

Now
64 °F

Passing clouds.


Feels Like: 64 °F
Forecast: 33 / 70 °F
Wind: 6 mph from West

Location: Bloemfontein Airport

Current Time: Jul 31, 2014 at 1:42:51 PM

Latest Report: Jul 31, 2014 at 12:00 PM


Visibility: N/A

Pressure: 30.36 "Hg

Humidity: 34%

Dew point: 36 °F

Location of BloemfonteinLocation

Historic Weather in Bloemfontein — Graph

°F

Bloemfontein temperature yesterday

Maximum temperature yesterday: 64 °F (at 2:00 PM)
Minimum temperature yesterday: 32 °F (at 5:00 AM)
Average temperature yesterday: 47 °F

Past Weeks' High & Low Weather Summary

 TemperatureHumidityPressure
High75 °F (Jul 24, 3:00 PM)87% (Jul 30, 5:00 AM)30.63 "Hg (Jul 30, 5:00 AM)
Low21 °F (Jul 27, 7:00 AM)10% (Jul 21, 5:00 PM)29.98 "Hg (Jul 25, 3:00 PM)
Average46 °F48%30.32 "Hg
* Reported Jul 16 12:00 Noon — Jul 31 12:00 Noon, Bloemfontein, Weather by CustomWeather, © 2014

Note: Actual official high and low records may vary slightly from our data, if they occured in-between our weather recording intervals... More about our weather records

Advertising

Bloemfontein weather history for previous 24 hours

 ConditionsComfort  
Time TempWeatherWind HumidityBarometerVisibility
12:00 PM
Jul 31
64 °FPassing clouds.6 mph34%30.36 "HgN/A
11:00 AM59 °FSunny.3 mph39%30.39 "Hg10 mi
10:00 AM52 °FSunny.1 mph47%30.39 "Hg10 mi
9:45 AM52 °FSunny.1 mph50%30.39 "Hg10 mi
9:00 AM45 °FSunny.2 mph57%30.39 "Hg10 mi
8:00 AM39 °FSunny.No wind70%30.42 "Hg10 mi
7:00 AM36 °FSunny.No wind70%30.36 "Hg10 mi
6:00 AM36 °FSunny.1 mph75%30.36 "Hg10 mi
5:00 AM32 °FClear.No wind80%30.39 "Hg10 mi
2:00 AM34 °FChilly.No wind81%30.39 "HgN/A
11:00 PM
Jul 30
39 °FChilly.No wind70%30.42 "HgN/A
8:00 PM46 °FClear.No wind53%30.42 "Hg10 mi
7:00 PM52 °FClear.No wind44%30.39 "Hg10 mi
6:00 PM59 °FClear.2 mph36%30.36 "Hg10 mi
5:00 PM64 °FPassing clouds.5 mph32%30.36 "HgN/A
4:00 PM63 °FPassing clouds.3 mph37%30.39 "HgN/A
3:00 PM63 °FSunny.2 mph37%30.39 "Hg10 mi
2:00 PM64 °FSunny.2 mph30%30.42 "Hg10 mi
1:00 PM63 °FSunny.5 mph39%30.45 "Hg10 mi
Weather by CustomWeather, © 2014

See weather overviewHow to use our weather pages